Kansas Department of Transportation
RWIS(Road and Runway Information System) Map and Weather Data





Station
Surface
Air
Wind
Site IDSensor TypeLocationTemperature (°F)Temperature (°F)Humidity (%)Speed (mi/h)Gusts (mi/h)DirectionTime
123002AtmosphericBonner Springs 365259SJan 19 2018 1:05AM
123002ApproachBonner Springs28     Jan 19 2018 1:05AM
123002DeckBonner Springs30     Jan 19 2018 1:05AM
123014AtmosphericBull Creek 36411116SJan 19 2018 1:05AM
123014DeckBull Creek30     Jan 19 2018 1:05AM
123014DepartureBull Creek30     Jan 19 2018 1:05AM
123015AtmosphericLeavenworth 3752713WSWJan 19 2018 1:05AM
123015DeckLeavenworth28     Jan 19 2018 1:05AM
123015DepartureLeavenworth28     Jan 19 2018 1:05AM
123020AtmosphericMayetta 3647912SSWJan 19 2018 1:05AM
123020RoadwayMayetta28     Jan 19 2018 1:05AM
123020DeckMayetta32     Jan 19 2018 1:05AM
505000AtmosphericKTA 1 304147SSEJan 19 2018 1:00AM
505000ApproachKTA 132     Jan 19 2018 1:00AM
505000DeckKTA 128     Jan 19 2018 1:00AM
505001AtmosphericKTA 2 344479SJan 19 2018 1:00AM
505001ApproachKTA 234     Jan 19 2018 1:00AM
505001DeckKTA 230     Jan 19 2018 1:00AM
505002AtmosphericKTA 3 365047SJan 19 2018 1:00AM
505002ApproachKTA 330     Jan 19 2018 1:00AM
505002DeckKTA 334     Jan 19 2018 1:00AM
505003AtmosphericKTA 4 3633915NJan 19 2018 1:00AM
505003ApproachKTA 430     Jan 19 2018 1:00AM
505003DeckKTA 434     Jan 19 2018 1:00AM
505004AtmosphericKTA 5 37991017SWJan 19 2018 1:00AM
505004RoadwayKTA 532     Jan 19 2018 1:00AM
505004RoadwayKTA 532     Jan 19 2018 1:00AM
505005AtmosphericKTA 6 344947SEJan 19 2018 1:00AM
505005Approach KTA 628     Jan 19 2018 1:00AM
505005DeckKTA 630     Jan 19 2018 1:00AM
505006AtmosphericKTA 7 375417SSWJan 19 2018 1:00AM
505006ApproachKTA 7Unavailable     Jan 19 2018 1:00AM
505006DeckKTA 730     Jan 19 2018 1:00AM
505007AtmosphericKTA 8 3655711SSWJan 19 2018 1:00AM
505007ApproachKTA 830     Jan 19 2018 1:00AM
505007DeckKTA 832     Jan 19 2018 1:00AM
505008AtmosphericKTA 9 374537SSWJan 19 2018 1:00AM
505008ApproachKTA 928     Jan 19 2018 1:00AM
505008DeckKTA 932     Jan 19 2018 1:00AM
505009AtmosphericKTA 10 363449SSWJan 19 2018 1:00AM
505009ApproachKTA 1030     Jan 19 2018 1:00AM
505009DeckKTA 1032     Jan 19 2018 1:00AM
505010AtmosphericWebb 3746714SEJan 19 2018 1:05AM
505010DeckWebb36     Jan 19 2018 1:05AM
505010NullWebb32     Jan 19 2018 1:05AM
505014AtmosphericI-135 3742914SSWJan 19 2018 1:05AM
505014ApproachI-13536     Jan 19 2018 1:05AM
505014DeckI-135Unavailable     Jan 19 2018 1:05AM
540000AtmosphericBlue Rapids 375867SSWJan 19 2018 1:05AM
540000DeckBlue Rapids32     Jan 19 2018 1:05AM
540000DepartureBlue Rapids28     Jan 19 2018 1:05AM
540001AtmosphericSabetha 376269SWJan 19 2018 1:05AM
540001ApproachSabetha28     Jan 19 2018 1:05AM
540001DeckSabetha30     Jan 19 2018 1:05AM
540002AtmosphericWestgate 394247SJan 19 2018 1:05AM
540002DeckWestgate34     Jan 19 2018 1:05AM
540002DepartureWestgate32     Jan 19 2018 1:05AM
540003AtmosphericEmporia 3456710SSWJan 19 2018 1:05AM
540003ApproachEmporia30     Jan 19 2018 1:05AM
540003DeckEmporia32     Jan 19 2018 1:05AM
540005AtmosphericLawrence 3649411SSEJan 19 2018 1:05AM
540005ApproachLawrenceUnavailable     Jan 19 2018 1:05AM
540005DeckLawrence84     Jan 19 2018 1:05AM
540006AtmosphericTroy      Jan 18 2018 5:15PM
540006DeckTroy      Jan 18 2018 5:15PM
540006DepartureTroy      Jan 18 2018 5:15PM
540007AtmosphericManhattan 394967SSWJan 19 2018 1:05AM
540007DepartureManhattan34     Jan 19 2018 1:05AM
540007DeckManhattan30     Jan 19 2018 1:05AM
541001AtmosphericSyracuse 284946WNWJan 19 2018 1:05AM
541001Out of Service for WinterSyracuse28     Jan 19 2018 1:05AM
541001DeckSyracuse27     Jan 19 2018 1:05AM
541002AtmosphericLiberal 324012SWJan 19 2018 1:05AM
541002ApproachLiberalUnavailable     Jan 19 2018 1:05AM
541002DeckLiberalUnavailable     Jan 19 2018 1:05AM
541003AtmosphericFord 324013SJan 19 2018 1:05AM
541003DeckFord32     Jan 19 2018 1:05AM
541003DepartureFord30     Jan 19 2018 1:05AM
541004AtmosphericScott 301012SEJan 19 2018 1:05AM
541004DepartureScott28     Jan 19 2018 1:05AM
541005AtmosphericNess 344033WNWJan 19 2018 1:05AM
541005DeckNess32     Jan 19 2018 1:05AM
541005DepartureNess27     Jan 19 2018 1:05AM
541007AtmosphericGarden City 343547SJan 19 2018 1:05AM
541007ApproachGarden City30     Jan 19 2018 1:05AM
541007DeckGarden City36     Jan 19 2018 1:05AM
543000AtmosphericJunction City 394637NNEJan 19 2018 1:05AM
543000ApproachJunction City32     Jan 19 2018 1:05AM
543000DeckJunction City34     Jan 19 2018 1:05AM
543001AtmosphericEllsworth 37321417NJan 19 2018 1:05AM
543001RoadwayEllsworthUnavailable     Jan 19 2018 1:05AM
543003AtmosphericSalina 3736811NJan 19 2018 1:05AM
543003DepartureSalina30     Jan 19 2018 1:05AM
543003RoadwaySalina34     Jan 19 2018 1:05AM
543004AtmosphericConcordia 346445SJan 19 2018 1:05AM
543004ApproachConcordia28     Jan 19 2018 1:05AM
543004DeckConcordia30     Jan 19 2018 1:05AM
543005AtmosphericPeabody 3240712WJan 19 2018 1:05AM
543005ApproachPeabody32     Jan 19 2018 1:05AM
543005DeckPeabodyUnavailable     Jan 19 2018 1:05AM
560000AtmosphericEdson 393858WJan 19 2018 1:05AM
560000RoadwayEdson32     Jan 19 2018 1:05AM
560000RoadwayEdson32     Jan 19 2018 1:05AM
560001AtmosphericOakley 393379WSWJan 19 2018 1:05AM
560001ApproachOakley32     Jan 19 2018 1:05AM
560001DeckOakley36     Jan 19 2018 1:05AM
560002AtmosphericAtwood 365168SJan 19 2018 1:05AM
560002ApproachAtwood32     Jan 19 2018 1:05AM
560002DeckAtwood28     Jan 19 2018 1:05AM
560003AtmosphericJennings 325422WJan 19 2018 1:05AM
560003ApproachJennings28     Jan 19 2018 1:05AM
560003DeckJennings28     Jan 19 2018 1:05AM
560003DeckJennings28     Jan 19 2018 1:05AM
560004AtmosphericWakeeney 344524SSWJan 19 2018 1:05AM
560004ApproachWakeeney30     Jan 19 2018 1:05AM
560004DeckWakeeney34     Jan 19 2018 1:05AM
560005AtmosphericWalker 324857SWJan 19 2018 1:05AM
560005ApproachWalker30     Jan 19 2018 1:05AM
560005DeckWalker50     Jan 19 2018 1:05AM
560006AtmosphericBow Creek(Stockton) 372878SSWJan 19 2018 1:05AM
560006ApproachBow Creek(Stockton)28     Jan 19 2018 1:05AM
560006DeckBow Creek(Stockton)28     Jan 19 2018 1:05AM
560007AtmosphericLebanon 364612SJan 19 2018 1:05AM
560007ApproachLebanon25     Jan 19 2018 1:05AM
560007DeckLebanon28     Jan 19 2018 1:05AM
560008AtmosphericWallace 304044WJan 19 2018 1:05AM
560008ApproachWallace28     Jan 19 2018 1:05AM
560008DeckWallace27     Jan 19 2018 1:05AM
572000AtmosphericGreat Bend 4348912SJan 19 2018 1:05AM
572000ApproachGreat Bend28     Jan 19 2018 1:05AM
572000DeckGreat Bend23     Jan 19 2018 1:05AM
572001AtmosphericPratt 285800SWJan 19 2018 1:05AM
572001ApproachPratt27     Jan 19 2018 1:05AM
572001DeckPratt28     Jan 19 2018 1:05AM
572002AtmosphericAnthony 305736SSEJan 19 2018 1:05AM
572002ApproachAnthony28     Jan 19 2018 1:05AM
572002DeckAnthony28     Jan 19 2018 1:05AM
573000AtmosphericEureka 3743215SSWJan 19 2018 1:05AM
573000DeckEurekaUnavailable     Jan 19 2018 1:05AM
573000DepartureEureka30     Jan 19 2018 1:05AM
573001AtmosphericGarnett 345058SSWJan 19 2018 1:05AM
573001ApproachGarnett28     Jan 19 2018 1:05AM
573001DeckGarnett30     Jan 19 2018 1:05AM
573002AtmosphericCaney 323448ESEJan 19 2018 1:05AM
573002RoadwayCaney28     Jan 19 2018 1:05AM
573003AtmosphericChetopa 324839SSEJan 19 2018 1:05AM
573003DeckChetopa25     Jan 19 2018 1:05AM
573003DeckChetopa25     Jan 19 2018 1:05AM
573003DepartureChetopa27     Jan 19 2018 1:05AM
573004AtmosphericChanute 3443610SJan 19 2018 1:05AM
573004ApproachChanute28     Jan 19 2018 1:05AM
573004DeckChanute30     Jan 19 2018 1:05AM